Miscellaneous Local Product
Issued by NWS Hastings, NE

Home | Current Version | Previous Version | Text Only | Print | Product List | Glossary Off
Versions: 1 2 3 4 5 6 7 8 9 10 11 12 13 14 15 16 17 18 19 20 21 22 23 24 25 26 27 28 29 30 31 32 33 34 35 36 37 38 39 40 41 42 43 44 45 46 47 48 49 50

000
AXUS43 KGID 250802
MISGRI

GID CWA HOURLY WEATHER ROUNDUP
NATIONAL WEATHER SERVICE HASTINGS NE
300 AM CDT FRI JUL 25 2014

NOTE: "FAIR" INDICATES FEW OR NO CLOUDS BELOW 12,000 FEET WITH NO
SIGNIFICANT WEATHER AND/OR OBSTRUCTIONS TO VISIBILITY.

...SOUTH CENTRAL NEBRASKA...

CITY           SKY/WX    TMP DP  RH WIND       PRES   REMARKS
GRAND ISLAND   MOCLDY    76  68  76 SE15G22   29.80F
HASTINGS       CLOUDY    78  66  66 SE8       29.86F
KEARNEY        CLOUDY    77  68  73 E10       29.85F
ORD            PTCLDY    73  67  81 SE13      29.77F
YORK           CLOUDY    73  68  83 SE12      29.85F
AURORA         MOCLDY    74  70  86 SE10      29.82F
LEXINGTON      CLOUDY    81  71  71 SE14G21   29.81F
HOLDREGE       CLOUDY    79  69  71 SE9       29.83F
HEBRON         CLOUDY    77  66  69 S6        29.86R

...NEBRASKA PANHANDLE...

CITY           SKY/WX    TMP DP  RH WIND       PRES   REMARKS
CHADRON        CLEAR     75  54  47 W10       29.80R
ALLIANCE       CLEAR     69  53  56 W6        29.87S
SCOTTSBLUFF    CLEAR     81  52  36 VRB7G23   29.89F
SIDNEY         PTCLDY    69  54  58 W8        29.95F

...WESTERN AND NORTH CENTRAL NEBRASKA...

CITY           SKY/WX    TMP DP  RH WIND       PRES   REMARKS
VALENTINE      PTCLDY    74  61  63 SW13      29.73F
AINSWORTH      PTCLDY    71  69  94 S12       29.75F
ONEILL         CLEAR     75  67  74 S16G22    29.73F
BROKEN BOW     PTCLDY    80  70  71 S16G28    29.77F
IMPERIAL       CLEAR     70  58  65 NW13      29.85F
NORTH PLATTE   PTCLDY    77  61  57 VRB5      29.82R
MCCOOK         PTCLDY    76  57  51 S10       29.81F

...EASTERN NEBRASKA...

CITY           SKY/WX    TMP DP  RH WIND       PRES   REMARKS
NORFOLK        CLOUDY    73  67  81 S18       29.73F
SO SIOUX CITY  CLOUDY    77  65  66 SW18G28   29.69F
TEKAMAH        CLOUDY    79  67  66 SW22G31   29.72F
COLUMBUS       CLOUDY    75  66  73 S18G25    29.78F
ALBION         MOCLDY    73  66  78 S16G23    29.77F
OMAHA EPPLEY   LGT RAIN  77  65  66 SW25G32   29.81F
OFFUTT AFB     LGT RAIN  73  66  80 SW10      29.86F
MILLARD        LGT RAIN  74  67  78 SW12      29.86F
LINCOLN        CLOUDY    74  68  81 E9        29.87F
NEBRASKA CITY  CLOUDY    71  60  68 N8        29.93R
BEATRICE       CLOUDY    75  67  76 NE3       29.87R
FALLS CITY     CLOUDY    74  59  59 S12       29.87R

...NORTHERN KANSAS...

CITY           SKY/WX    TMP DP  RH WIND       PRES   REMARKS
GOODLAND       CLOUDY    77  54  44 S10       29.91F
HILL CITY      CLOUDY    84  63  49 SW15G29   29.85S
NORTON         SUNNY     81  57  44 S15G22    29.82F
PHILLIPSBURG   CLEAR     84  66  54 S12       29.83F
SMITH CENTER   CLEAR     81  68  65 S14       29.85F
HAYS           PTCLDY    72  64  78 S16G22    29.88S
RUSSELL        PTCLDY    80  68  66 S22G28    29.86S
CONCORDIA      MOCLDY    77  70  79 S14G23    29.86F
SALINA         CLEAR     80  70  71 S15G24    29.87F
TOPEKA         CLOUDY    76  63  64 S10       29.90F



USA.gov is the U.S. government's official web portal to all federal, state and local government web resources and services.